Left ArrowRight Arrow

44.8408, -93.29828

Hourly Observations for May 17, 2024

Temp ( °F °C ) Dew Point ( °F °C ) Humidity (%) Winds ( mph kmh ) Pressure ( in mb ) Visibility ( mi km ) Precip ( " mm )
12:53 am 00:53 Clear 59 15 51 10.6 75 75 Calm 29.74 1007 10 16 0.00 0.00
2:53 am 02:53 Clear 58 14.4 51 10.6 78 78 SE 3 6 29.71 1006 10 16 0.00 0.00
3:53 am 03:53 Clear 56 13.3 49 9.4 77 77 Calm 29.70 1006 10 16 0.00 0.00
4:53 am 04:53 Clear 56 13.3 49 9.4 77 77 SE 6 9 29.70 1006 10 16 0.00 0.00
5:53 am 05:53 Mostly Sunny 55 12.8 49 9.4 80 80 SE 7 11 29.70 1006 8 13 0.00 0.00
6:53 am 06:53 Mostly Cloudy 58 14.4 50 10 75 75 SE 6 9 29.70 1006 8 13 0.00 0.00
7:53 am 07:53 Mostly Cloudy 61 16.1 50 10 67 67 SE 5 7 29.70 1006 9 14 0.00 0.00
8:53 am 08:53 Cloudy 64 17.8 50 10 60 60 S 6 9 29.70 1006 9 14 0.00 0.00
9:53 am 09:53 Mostly Cloudy with Light Rain 64 17.8 53 11.7 67 67 SSE 6 9 29.67 1005 8 13 0.01 0.13
10:53 am 10:53 Partly Cloudy 68 20 55 12.8 63 63 SSE 10 17 29.65 1004 9 14 0.01 0.13
11:53 am 11:53 Mostly Sunny 76 24.4 52 11.1 43 43 SSW 9 15 29.63 1003 10 16 0.00 0.00
12:53 pm 12:53 Mostly Sunny 80 26.7 52 11.1 38 38 SSW 13 20 29.61 1003 10 16 0.00 0.00
1:53 pm 13:53 Mostly Sunny 81 27.2 50 10 34 34 S 15 24 29.61 1003 10 16 0.00 0.00
2:53 pm 14:53 Mostly Sunny 82 27.8 52 11.1 35 35 S 15 24 29.60 1003 10 16 0.00 0.00
3:53 pm 15:53 Mostly Sunny 84 28.9 52 11.1 33 33 SSW 15 24 29.58 1002 10 16 0.00 0.00
4:53 pm 16:53 Partly Cloudy 85 29.4 48 8.9 28 28 SW 16 26 29.57 1001 10 16 0.00 0.00
5:53 pm 17:53 Partly Cloudy 83 28.3 47 8.3 28 28 S 13 20 29.56 1001 10 16 0.00 0.00
6:53 pm 18:53 Mostly Cloudy with Light Rain 81 27.2 49 9.4 33 33 S 7 11 29.57 1002 10 16 0.01 0.13
7:29 pm 19:29 Windy with Storms Likely 68 20 57 13.9 68 68 NW 20 31 29.62 1003 10 16 0.01 0.13
7:53 pm 19:53 Cloudy with Rain 65 18.3 60 15.6 84 84 NW 8 13 29.67 1005 6 10 0.06 1.52
8:04 pm 20:04 Mostly Cloudy with Nearby Thunderstorms 65 18.3 61 16.1 87 87 NNW 7 11 29.66 1005 6 10 0.03 0.76
8:16 pm 20:16 Cloudy with Rain 65 18.3 61 16.1 87 87 N 3 6 29.68 1005 6 10 0.08 2.03
8:53 pm 20:53 Mostly Cloudy with Light Rain 65 18.3 59 15 81 81 SSE 13 20 29.66 1004 5 8 0.25 6.35
9:03 pm 21:03 Mostly Cloudy with Light Rain 67 19.4 59 15 76 76 SSE 14 22 29.62 1003 5 8 0.03 0.76
9:53 pm 21:53 Mostly Cloudy 66 18.9 58 14.4 75 75 SE 9 15 29.62 1003 10 16 0.04 1.02
10:32 pm 22:32 Mostly Cloudy with Thunderstorms 66 18.9 58 14.4 75 75 SSE 10 17 29.62 1003 10 16 0.00 0.00
11:02 pm 23:02 Cloudy with Thunderstorms 66 18.9 57 13.9 73 73 SE 12 19 29.62 1003 10 16 0.00 0.00
11:26 pm 23:26 Partly Cloudy 65 18.3 58 14.4 78 78 ESE 16 26 29.61 1003 10 16 0.00 0.00
11:53 pm 23:53 Mostly Cloudy 65 18.3 58 14.4 78 78 SE 12 19 29.62 1003 10 16 0.00 0.00

Powered by Vaisala Xweather